Location: Burjasot
(39.5167°N, 0.4167°W)
Time: 16:24:56
(UTC+02:00)

ISS - Visible Passes

Search period start: 07 May 2021 00:00
Search period end: 17 May 2021 00:00
Orbit: 418 x 421 km, 51.6° (Epoch: 07 May)

Date Brightness Start Highest point End Pass type
(mag) Time Alt. Az. Time Alt. Az. Time Alt. Az.
07 May -0.7 03:35:21 16° N 03:35:21 16° N 03:36:33 10° NNE visible
07 May -0.6 05:10:55 10° NNW 05:11:47 11° N 05:12:39 10° NNE visible
08 May -0.7 04:22:50 10° NNW 04:24:03 11° N 04:25:16 10° NNE visible
08 May -0.7 06:00:20 10° NNW 06:02:03 13° NNE 06:03:46 10° NE visible
09 May -0.7 03:36:22 13° NNW 03:36:22 13° NNW 03:38:02 10° NNE visible
09 May -0.6 05:13:06 10° NNW 05:14:20 12° N 05:15:35 10° NNE visible
10 May -0.3 02:50:22 12° NNE 02:50:22 12° NNE 02:50:50 10° NNE visible
10 May -0.5 04:25:45 10° NNW 04:26:36 11° N 04:27:29 10° NNE visible
10 May -1.0 06:01:49 10° NNW 06:04:27 20° NNE 06:07:04 10° ENE visible
11 May -0.4 03:38:01 10° NNW 03:38:53 11° N 03:39:43 10° NNE visible
11 May -0.7 05:14:37 10° NNW 05:16:49 16° NNE 05:19:00 10° ENE visible
12 May -0.3 02:51:12 11° N 02:51:12 11° N 02:52:20 10° NNE visible
12 May -0.5 04:27:25 10° NNW 04:29:08 13° NNE 04:30:50 10° NE visible
12 May -2.3 06:03:24 10° NW 06:06:39 42° NNE 06:09:52 10° ESE visible
13 May -0.2 02:05:02 10° NNE 02:05:02 10° NNE 02:05:05 10° NNE visible
13 May -0.4 03:40:11 10° NNW 03:41:25 12° N 03:42:39 10° NNE visible
13 May -1.5 05:16:08 10° NW 05:19:06 28° NNE 05:22:05 10° E visible
14 May -0.2 02:52:49 10° NNW 02:53:41 11° N 02:54:32 10° NNE visible
14 May -1.0 04:28:53 10° NNW 04:31:31 21° NNE 04:34:09 10° ENE visible
14 May -3.8 06:05:14 10° WNW 06:08:36 66° SW 06:11:56 10° SE visible
14 May -3.9 22:47:40 10° SW 22:50:59 69° SE 22:54:20 10° ENE visible
15 May -1.0 00:25:31 10° WNW 00:28:06 20° NNW 00:30:40 10° NNE visible
15 May -0.2 02:05:06 10° NNW 02:05:56 11° N 02:06:46 10° NNE visible
15 May -0.6 03:41:41 10° NNW 03:43:52 16° NNE 03:46:04 10° ENE visible
15 May -3.5 05:17:48 10° NW 05:21:10 71° NE 05:24:32 10° ESE visible
15 May -3.3 22:00:30 10° SSW 22:03:37 38° SE 22:06:46 10° ENE visible
15 May -1.6 23:37:33 10° W 23:40:29 27° NNW 23:43:26 10° NNE visible
16 May -0.2 01:17:01 10° NNW 01:18:12 11° N 01:19:22 10° NNE visible
16 May -0.4 02:54:28 10° NNW 02:56:12 13° NNE 02:57:54 10° NE visible
16 May -2.5 04:30:27 10° NW 04:33:42 42° NNE 04:36:55 10° ESE visible
16 May -2.4 06:07:42 10° W 06:10:18 21° SW 06:12:53 10° S visible
16 May -2.3 22:49:45 10° WSW 22:52:57 40° NNW 22:56:09 10° NE visible
